Location: ??????
(55.7522°N, 37.6156°E)
Time: 17:00:09
(UTC+00:00)

USA 307 - Pass Details

Date: 14 June 2025
Orbit: 495 x 502 km, 54.0° (Epoch: 10 March)

Event Time Altitude Azimuth Distance (km) Brightness Sun altitude
Exits shadow 22:54:11 - 245° (WSW) 2,120 5.4 -8.9°
Reaches altitude 10° 22:55:21 10° 242° (WSW) 1,673 4.9 -8.9°
Maximum altitude 22:59:10 55° 165° (SSE) 609 2.8 -8.7°
Drops below altitude 10° 23:03:00 10° 88° (E) 1,679 5.6 -8.5°
Sets 23:05:09 0° 84° (E) 2,511 6.6 -8.4°
